This is the latest recevied weather packets stored in our database for station/object KC7UNY-13. If no packets are shown the sender has not sent any weather packets the latest 10 day(s).
| Time | Temp. | Humidity | Pressure | Rain* | Wind** | Luminosity | Snow |
|---|---|---|---|---|---|---|---|
| 1777865325 | 28.33° C | 25% | 1008.9 hPa | 0 mm | - | 0 W/m² | - |
| 1777865022 | 28.89° C | 24% | 1008.8 hPa | 0 mm | - | 0 W/m² | - |
| 1777864719 | 28.89° C | 24% | 1008.7 hPa | 0 mm | - | 0 W/m² | - |
| 1777864416 | 28.89° C | 23% | 1008.6 hPa | 0 mm | - | 0 W/m² | - |
| 1777864112 | 28.89° C | 23% | 1008.4 hPa | 0 mm | - | 0 W/m² | - |
| 1777863810 | 28.89° C | 23% | 1008.5 hPa | 0 mm | - | 0 W/m² | - |
| 1777863506 | 29.44° C | 23% | 1008.3 hPa | 0 mm | - | 0 W/m² | - |
| 1777863203 | 29.44° C | 22% | 1008.3 hPa | 0 mm | - | 0 W/m² | - |
| 1777862899 | 29.44° C | 23% | 1008.1 hPa | 0 mm | - | 0 W/m² | - |
| 1777862596 | 30° C | 22% | 1008 hPa | 0 mm | - | 0 W/m² | - |
| 1777862292 | 30° C | 22% | 1007.7 hPa | 0 mm | - | 0 W/m² | - |
| 1777861989 | 30° C | 22% | 1007.7 hPa | 0 mm | - | 0 W/m² | - |
| 1777861685 | 30° C | 22% | 1007.5 hPa | 0 mm | - | 0 W/m² | - |
| 1777861381 | 30° C | 22% | 1007.5 hPa | 0 mm | - | 0 W/m² | - |
| 1777861078 | 30° C | 22% | 1007.5 hPa | 0 mm | - | 1 W/m² | - |
| 1777860776 | 30.56° C | 21% | 1007.4 hPa | 0 mm | - | 1 W/m² | - |
| 1777860473 | 30.56° C | 21% | 1007.3 hPa | 0 mm | - | 2 W/m² | - |
| 1777860170 | 30.56° C | 21% | 1007.2 hPa | 0 mm | - | 4 W/m² | - |
| 1777859866 | 31.11° C | 21% | 1007.1 hPa | 0 mm | - | 7 W/m² | - |
| 1777859562 | 31.11° C | 20% | 1007.1 hPa | 0 mm | - | 11 W/m² | - |
| 1777859258 | 31.11° C | 20% | 1007 hPa | 0 mm | - | 13 W/m² | - |
| 1777858954 | 31.67° C | 20% | 1006.7 hPa | 0 mm | - | 16 W/m² | - |
| 1777858652 | 31.67° C | 20% | 1006.8 hPa | 0 mm | - | 22 W/m² | - |
| 1777858349 | 32.22° C | 20% | 1006.6 hPa | 0 mm | - | 29 W/m² | - |
| 1777858046 | 32.22° C | 19% | 1006.8 hPa | 0 mm | - | 37 W/m² | - |
* Rain latest hour (hover to see other rain measurements)
** Current wind speed in m/s (hover to see current wind gust speed)